Regional Weather Roundup
Issued by NWS

Home | Current Version | Previous Version | Graphics & Text | Print | Product List | Glossary On
Versions: 1 2 3 4 5 6 7 8 9 10 11 12 13 14 15 16 17 18 19 20 21 22 23 24 25 26 27 28 29 30 31 32 33 34 35 36 37 38 39 40 41 42 43 44 45 46 47 48 49 50
023
ASUS43 KOAX 240902
RWRNE

WEATHER ROUNDUP FOR NEBRASKA
NATIONAL WEATHER SERVICE OMAHA NE
300 AM CST TUE JAN 24 2017

NOTES: SATELLITE DATA IS BEING USED TO AUGMENT CLOUD COVER ABOVE
       12000 FEET.
       "FAIR" INDICATES FEW OR NO CLOUDS BELOW 12,000 FEET WITH NO
       SIGNIFICANT WEATHER AND/OR OBSTRUCTIONS TO VISIBILITY.

  * THESE STATIONS DO NOT REPORT WEATHER SUCH AS RAIN...SNOW OR FOG.

NEZ001>004-019>022-054>056-241000-
NEBRASKA PANHANDLE

CITY           SKY/WX    TMP DP  RH WIND       PRES   REMARKS
SCOTTSBLUFF    CLOUDY    26  21  81 NE14      29.60S WCI  14
ALLIANCE       HVY SNOW  25  23  92 N13       29.61R VSB 1/4 WCI  14
CHADRON        LGT SNOW  23  21  92 N10       29.68F FOG     WCI  12
KIMBALL        CLOUDY    31  31 100 NE8       29.52F WCI  23
SIDNEY         CLOUDY    29  27  92 N17       29.53F WCI  17
$$

NEZ057>060-069>072-079>082-241000-
SOUTHWEST NEBRASKA

CITY           SKY/WX    TMP DP  RH WIND       PRES   REMARKS
NORTH PLATTE   CLOUDY    32  30  92 E16       29.56F FOG     WCI  21
IMPERIAL       CLOUDY    32  29  88 E12       29.49S WCI  23
LEXINGTON      CLOUDY    32  31  98 E14       29.59S FOG     WCI  22
MCCOOK         CLOUDY    33  31  92 E18G25    29.52F WCI  22
OGALLALA       CLOUDY    33  32  96 E12       29.53S FOG     WCI  24
$$

NEZ005>010-023>029-035>040-094-241000-
NORTH CENTRAL NEBRASKA

CITY           SKY/WX    TMP DP  RH WIND       PRES   REMARKS
VALENTINE      CLOUDY    30  27  88 CALM      29.67S FOG
AINSWORTH      FOG       31  31 100 E3        29.66F VSB 1/2
BROKEN BOW     FOG       31  31 100 E10       29.62S VSB 1/4 WCI  22
O`NEILL        CLOUDY    31  31 100 SE8       29.70F FOG     WCI  24
ORD            FOG       31  29  92 E10       29.67S VSB 1/4 WCI  22
THEDFORD       FOG       32  31  99 E6        29.62S VSB 1/2 WCI  26
$$

NEZ041-046>049-061>064-073>077-083>087-241000-
SOUTH CENTRAL NEBRASKA

CITY           SKY/WX    TMP DP  RH WIND       PRES   REMARKS
GRAND ISLAND   CLOUDY    32  31  96 E10       29.67F FOG     WCI  24
AURORA         CLOUDY    31  31 100 E16       29.67F FOG     WCI  20
HASTINGS       MOCLDY    32  31  96 E12       29.64S FOG     WCI  23
HEBRON         CLOUDY    33  32  98 E13G18    29.66S FOG     WCI  23
HOLDREGE       CLOUDY    32  32  99 E15       29.58F FOG     WCI  22
KEARNEY *      CLOUDY    32  30  93 E14       29.62F WCI  22
YORK           PTCLDY    32  32 100 E15       29.69F FOG     WCI  22
$$

NEZ011>018-030>034-042>045-241000-
NORTHEAST NEBRASKA

CITY           SKY/WX    TMP DP  RH WIND       PRES   REMARKS
NORFOLK        CLOUDY    30  28  92 E9        29.74S FOG     WCI  22
ALBION         FOG       32  30  93 E10       29.71F VSB 3/4 WCI  24
BLAIR          CLOUDY    31  30  96 E9        29.78F FOG     WCI  23
FREMONT        CLOUDY    31  31 100 E9        29.77F FOG     WCI  23
TEKAMAH        CLOUDY    31  28  89 E9        29.81F WCI  23
WAYNE          CLOUDY    31  30  97 SE8       29.77F FOG     WCI  23
$$

NEZ050>053-065>068-078-088>093-241000-
SOUTHEAST NEBRASKA

CITY           SKY/WX    TMP DP  RH WIND       PRES   REMARKS
LINCOLN        CLOUDY    31  29  92 E12       29.77F WCI  22
OMAHA EPPLEY   CLOUDY    31  26  82 E8        29.81F WCI  23
BEATRICE       CLOUDY    31  31  97 E12       29.71F FOG     WCI  22
FALLS CITY     CLEAR     30  27  88 E13       29.77F WCI  20
NEBRASKA CITY  MOCLDY    28  28 100 E9        29.79S FOG     WCI  20
PLATTSMOUTH    CLOUDY    30  28  90 E10       29.79S FOG     WCI  21
$$

NEZ044-045-051>053-067-241000-
OMAHA AREA

CITY           SKY/WX    TMP DP  RH WIND       PRES   REMARKS
OMAHA EPPLEY   CLOUDY    31  26  82 E8        29.81F WCI  23
BLAIR          CLOUDY    31  30  96 E9        29.78F FOG     WCI  23
FREMONT        CLOUDY    31  31 100 E9        29.77F FOG     WCI  23
MILLARD        CLOUDY    32  31  96 E5        29.80S FOG     WCI  28
OFFUTT AFB     CLOUDY    30  30 100 E8        29.80S WCI  23
PLATTSMOUTH    CLOUDY    30  28  90 E10       29.79S FOG     WCI  21
WAHOO          CLOUDY    31  29  95 E12       29.78S FOG     WCI  21
$$




USA.gov is the U.S. government's official web portal to all federal, state and local government web resources and services.